www.pogodaiklimat.ru

Погода и климат >> Архив погоды >> Австралия >> Западная Австралия >> Марбл-бар


ПОГОДА в Марбл-баре

  • Прогноз погоды в Марбл-баре
  • Монитор погоды в Марбл-баре

АРХИВ ПОГОДЫ в Марбл-баре

Время (UTC), дата Ветер
(напр.,м/с)
 
Видим.   Явления Облачность Т
(С)
Тd
(С)
f
(%)
Тe
(С)
Тes
(С)
Комфортность P
(гПа)
Po
(гПа)
Тmin
(С)
Tmax
(С)
R
(мм)
R24
(мм)
S
(см)
22 15.08 Ю 3 н/о н/о +16.2 +13.1 82 +16 +16 1018.0 996.8
00 16.08 ЮВ 5 н/о н/о +18.4 +13.1 71 +19 +19 1019.4 998.1
01 16.08 ЮВ 5 н/о н/о +21.5 +11.8 54 +24 +24 комфорт 1019.8 998.5 +15.4
03 16.08 В 4 н/о н/о +24.4 +9.9 40 +25 +25 комфорт 1018.9 997.6
04 16.08 В 3 н/о н/о +25.7 +7.8 32 +26 +26 жарко 1018.1 996.9
06 16.08 СЗ 2 н/о н/о +27.3 +5.0 24 +26 +26 жарко 1016.6 995.4
07 16.08 В 2 н/о н/о +27.1 +4.2 23 +26 +26 жарко 1016.2 995.0
09 16.08 З 1 н/о н/о +26.9 +2.7 21 +25 +25 комфорт 1016.0 994.8
10 16.08 Ю 2 н/о н/о +23.9 +3.8 27 +23 +23 комфорт 1016.4 995.2
12 16.08 Ю 2 н/о н/о +20.2 +3.9 34 +22 +22 комфорт 1017.6 996.4
13 16.08 Ю 3 н/о н/о +20.6 +5.0 36 +22 +22 комфорт 1017.9 996.7 +28.0
15 16.08 Ю 3 н/о н/о +20.1 +4.2 35 +21 +21 комфорт 1018.5 997.3
16 16.08 Ю 3 н/о н/о +18.0 +3.9 39 +18 +18 1018.7 997.5
18 16.08 ЮВ 1 н/о н/о +14.8 +3.6 47 +15 +15 1018.4 997.2
19 16.08 Ю 1 н/о н/о +13.5 +3.3 50 +14 +14 1018.1 996.9
21 16.08 штиль 0 н/о н/о +12.5 +3.5 54 +12 +12 1017.7 996.5
22 16.08 штиль 0 н/о н/о +10.7 +3.0 59 +10 +10 1018.2 997.0
00 17.08 Ю 1 н/о н/о +19.1 +5.6 41 +21 +21 комфорт 1019.8 998.5
01 17.08 В 2 н/о н/о +21.8 +4.8 33 +22 +22 комфорт 1020.2 998.9 +10.6
03 17.08 Ю 4 н/о н/о +25.0 -0.2 19 +23 +23 комфорт 1020.0 998.7
04 17.08 ЮВ 4 н/о н/о +26.1 -1.7 16 +24 +24 комфорт 1019.5 998.2
06 17.08 Ю 4 н/о н/о +27.9 -5.2 11 +25 +25 комфорт 1017.7 996.5
07 17.08 Ю 4 н/о н/о +28.4 -6.1 10 +25 +25 комфорт 1017.4 996.2
09 17.08 Ю 4 н/о н/о +26.5 -7.6 10 +23 +23 комфорт 1017.7 996.5
10 17.08 Ю 3 н/о н/о +23.9 -7.2 12 +22 +22 комфорт 1018.2 997.0
12 17.08 Ю 3 н/о н/о +20.9 -5.0 17 +21 +21 комфорт 1020.1 998.8
13 17.08 Ю 4 н/о н/о +21.5 -4.5 17 +20 +20 1020.6 999.3 +28.7
15 17.08 ЮВ 3 н/о н/о +17.9 -3.5 23 +18 +18 1020.8 999.5
16 17.08 ЮВ 4 н/о н/о +19.3 -2.9 22 +19 +19 1020.8 999.5
18 17.08 ЮВ 6 н/о н/о +18.4 -1.4 26 +18 +18 1020.6 999.3
19 17.08 ЮВ 6 н/о н/о +16.9 -0.3 31 +16 +16 1020.9 999.6
21 17.08 ЮВ 4 н/о н/о +15.1 -1.9 31 +14 +14 1021.5 1000.2
22 17.08 ЮВ 3 н/о н/о +13.9 -2.1 33 +13 +13 1022.3 1001.0
00 18.08 ЮВ 9 н/о н/о +17.4 -2.8 25 +16 +16 1023.7 1002.3
01 18.08 ЮВ 9 н/о н/о +19.2 -3.0 22 +18 +18 1024.1 1002.7 +13.8
03 18.08 ЮВ 8 н/о н/о +21.8 -2.8 19 +21 +21 комфорт 1023.5 1002.2
04 18.08 ЮВ 7 н/о н/о +22.5 -4.5 16 +21 +21 комфорт 1022.6 1001.3
06 18.08 ЮВ 7 н/о н/о +24.3 -6.9 12 +22 +22 комфорт 1020.7 999.4
07 18.08 ЮВ 7 н/о н/о +25.0 -7.5 11 +22 +22 комфорт 1019.9 998.6
09 18.08 ЮВ 7 н/о н/о +23.7 -8.5 11 +21 +21 комфорт 1020.3 999.0
10 18.08 ЮВ 5 н/о н/о +21.7 -7.9 13 +20 +20 1021.0 999.7
12 18.08 ЮВ 3 н/о н/о +17.3 -5.8 20 +17 +17 1022.9 1001.6
13 18.08 ЮВ 4 н/о н/о +18.5 -6.2 18 +18 +18 1023.4 1002.1 +25.6
15 18.08 ЮВ 3 н/о н/о +15.9 -5.8 22 +16 +16 1024.1 1002.7
16 18.08 ЮВ 5 н/о н/о +16.4 -6.0 21 +16 +16 1024.1 1002.7
18 18.08 ЮВ 5 н/о н/о +15.2 -6.3 22 +14 +14 1023.4 1002.1
19 18.08 ЮВ 5 н/о н/о +15.2 -6.3 22 +14 +14 1023.5 1002.2
21 18.08 ЮВ 4 н/о н/о +13.6 -5.5 26 +12 +12 1023.8 1002.4
22 18.08 ЮВ 4 н/о н/о +12.6 -4.9 29 +11 +11 1024.2 1002.8
00 19.08 ЮВ 10 н/о н/о +16.8 -4.4 23 +15 +15 1025.2 1003.8
01 19.08 ЮВ 9 н/о н/о +18.1 -3.9 22 +17 +17 1025.6 1004.2 +12.5
03 19.08 В 9 н/о н/о +21.2 -4.0 18 +20 +20 1024.6 1003.2
04 19.08 В 8 н/о н/о +21.7 -4.4 17 +21 +21 комфорт 1023.4 1002.1
06 19.08 ЮВ 7 н/о н/о +24.9 -6.4 12 +22 +22 комфорт 1021.5 1000.2
07 19.08 ЮВ 8 н/о н/о +24.8 -7.6 11 +22 +22 комфорт 1021.0 999.7
09 19.08 ЮВ 7 н/о н/о +23.6 -7.4 12 +21 +21 комфорт 1021.3 1000.0
10 19.08 ЮВ 6 н/о н/о +21.9 -7.7 13 +20 +20 1022.1 1000.8
12 19.08 ЮВ 5 н/о н/о +19.4 -5.5 18 +19 +19 1024.3 1002.9
13 19.08 ЮВ 6 н/о н/о +19.3 -4.9 19 +19 +19 1024.7 1003.3 +25.5
15 19.08 ЮВ 5 н/о н/о +17.9 -5.3 20 +17 +17 1024.8 1003.4
16 19.08 ЮВ 5 н/о н/о +17.3 -5.2 21 +17 +17 1024.4 1003.0
18 19.08 ЮВ 5 н/о н/о +16.4 -6.6 20 +16 +16 1024.0 1002.6
19 19.08 ЮВ 4 н/о н/о +15.3 -6.3 22 +15 +15 1023.9 1002.5
21 19.08 ЮВ 5 н/о н/о +14.5 -5.3 25 +13 +13 1024.1 1002.7
22 19.08 ЮВ 3 н/о н/о +13.5 -5.1 27 +13 +13 1025.0 1003.6
00 20.08 ЮВ 9 н/о н/о +16.9 -4.3 23 +16 +16 1026.2 1004.8
01 20.08 В 8 н/о н/о +18.7 -4.0 21 +18 +18 1026.4 1005.0 +13.5
03 20.08 В 9 н/о н/о +22.7 -4.4 16 +21 +21 комфорт 1024.8 1003.4
04 20.08 ЮВ 8 н/о н/о +24.5 -4.7 14 +22 +22 комфорт 1023.4 1002.1
06 20.08 В 7 н/о н/о +26.0 -5.6 12 +23 +23 комфорт 1021.5 1000.2
07 20.08 ЮВ 7 н/о н/о +26.9 -6.0 11 +24 +24 комфорт 1020.7 999.4
09 20.08 ЮВ 7 н/о н/о +25.6 -5.9 12 +23 +23 комфорт 1020.6 999.3
10 20.08 В 4 н/о н/о +23.7 -5.3 14 +22 +22 комфорт 1021.1 999.8
12 20.08 ЮВ 2 н/о н/о +18.8 -6.0 18 +19 +19 1022.9 1001.6
13 20.08 ЮВ 4 н/о н/о +18.2 -7.2 17 +18 +18 1023.2 1001.9 +27.7
15 20.08 ЮВ 3 н/о н/о +14.3 -6.5 23 +14 +14 1022.9 1001.6
16 20.08 ЮВ 2 н/о н/о +15.4 -7.4 20 +16 +16 1022.6 1001.3
18 20.08 ЮВ 3 н/о н/о +15.6 -7.2 20 +15 +15 1022.0 1000.7
19 20.08 ЮВ 3 н/о н/о +16.2 -6.8 20 +16 +16 1022.0 1000.7
21 20.08 ЮВ 4 н/о н/о +16.1 -5.6 22 +16 +16 1022.4 1001.1
22 20.08 ЮВ 3 н/о н/о +14.8 -5.5 24 +15 +15 1022.9 1001.6
00 21.08 В 5 н/о н/о +18.5 -5.5 19 +18 +18 1023.9 1002.5
01 21.08 В 6 н/о н/о +20.4 -5.4 17 +20 +20 1023.7 1002.3 +14.0
03 21.08 В 7 н/о н/о +24.4 -6.8 12 +22 +22 комфорт 1022.2 1000.9
04 21.08 В 6 н/о н/о +26.5 -8.9 9 +23 +23 комфорт 1020.8 999.5
06 21.08 В 4 н/о н/о +28.5 -8.9 8 +25 +25 комфорт 1019.2 997.9
07 21.08 ЮВ 5 н/о н/о +28.2 -10.8 7 +24 +24 комфорт 1018.3 997.1
09 21.08 В 5 н/о н/о +26.6 -12.0 7 +23 +23 комфорт 1018.2 997.0
10 21.08 В 3 н/о н/о +23.8 -10.9 9 +21 +21 комфорт 1018.7 997.5
12 21.08 ЮВ 4 н/о н/о +20.6 -10.9 11 +20 +20 1020.5 999.2
13 21.08 ЮВ 4 н/о н/о +20.3 -11.1 11 +20 +20 1021.0 999.7 +28.9
15 21.08 ЮВ 5 н/о н/о +18.4 -9.5 14 +18 +18 1021.2 999.9
16 21.08 ЮВ 4 н/о н/о +17.8 -9.1 15 +18 +18 1021.0 999.7
18 21.08 ЮВ 3 н/о н/о +15.6 -8.6 18 +16 +16 1020.5 999.2
19 21.08 ЮВ 2 н/о н/о +13.7 -8.2 21 +14 +14 1020.4 999.1
21 21.08 ЮВ 2 н/о н/о +13.4 -8.4 21 +13 +13 1020.8 999.5
22 21.08 ЮВ 3 н/о н/о +11.9 -8.0 24 +11 +11 1021.4 1000.1
00 22.08 ЮВ 3 н/о н/о +19.2 -9.8 13 +19 +19 1022.3 1001.0
01 22.08 ЮВ 4 н/о н/о +22.5 -10.6 10 +20 +20 1022.4 1001.1 +11.7
03 22.08 В 6 н/о н/о +26.4 -12.1 7 +23 +23 комфорт 1021.1 999.8
04 22.08 В 3 н/о н/о +27.5 -11.3 7 +24 +24 комфорт 1020.2 998.9
06 22.08 ЮВ 4 н/о н/о +28.6 -12.4 6 +25 +25 комфорт 1018.3 997.1
07 22.08 В 3 н/о н/о +28.4 -12.6 6 +24 +24 комфорт 1017.8 996.6
09 22.08 В 1 н/о н/о +27.7 -11.2 7 +24 +24 комфорт 1017.9 996.7
10 22.08 В 1 н/о н/о +24.5 -11.9 8 +22 +22 комфорт 1018.4 997.2
12 22.08 штиль 0 н/о н/о +17.7 -8.4 16 +18 +18 1019.3 998.0
13 22.08 штиль 0 н/о н/о +16.6 -7.8 18 +17 +17 1019.7 998.4 +29.3
15 22.08 Ю 1 н/о н/о +15.5 -8.0 19 +16 +16 1019.5 998.2
16 22.08 штиль 0 н/о н/о +12.8 -6.2 26 +13 +13 1019.4 998.1
18 22.08 штиль 0 н/о н/о +11.1 -6.2 29 +11 +11 1018.5 997.3
19 22.08 Ю 1 н/о н/о +10.7 -6.1 30 +11 +11 1018.4 997.2
21 22.08 Ю 1 н/о н/о +9.8 -6.1 32 +11 +11 1018.7 997.5

 

Местоположение метеостанции Марбл-бар (Западная Австралия, Австралия): широта -21.18 долгота 119.75 высота над уровнем моря 183 м.

В архиве по умолчанию представлена погода в Марбл-баре за последнюю неделю. Архивные данные за месяц целиком и за предыдущие месяцы, начиная с января 2011 года, Вы можете получить, выбрав интересующий диапазон дат из раскрывающегося списка и нажав кнопку "Ввод!".


*Определитесь, кто Вы:
робот инопланетянин человек

Внимание! Время в таблицах - всемирное. Для получения местного времени необходимо прибавить поправку, которая равна 8 ч.

Смотрите также архив погоды в соседних городах и на ближайших метеорологических станциях:

Погода в Порт-Хедленде Apardoo (Западная Австралия, Австралия) (148 км)
Погода в Мандоре (Западная Австралия, Австралия) (198 км)
Погода в Ньюмане (Западная Австралия, Австралия) (248 км)
Погода в Телфере (Западная Австралия, Австралия) (261 км)
Погода в Роборн аэропорту (Западная Австралия, Австралия) (274 км)
Погода в Параберду (Западная Австралия, Австралия) (302 км)
Погода в Каррате (Западная Австралия, Австралия) (314 км)
Погода в Марди (Западная Австралия, Австралия) (392 км)
Погода в Роули Шоалс (Западная Австралия, Австралия) (415 км)
Погода на Острове Варанас (Западная Австралия, Австралия) (438 км)

Пояснения к столбцам:

Ветер - указаны скорость ветра в м/с - средняя за 10 мин, порывы в срок и между сроками (в фигурных скобках) и направление, откуда дует ветер: С - северный, СВ - северо-восточный, В - восточный, ЮВ - юго-восточный, Ю - южный, ЮЗ - юго-западный, З - западный, СЗ - северо-западный.
Видимость - горизонтальная дальность видимости в метрах или километрах. При видимости от 1 до 10 км при отсутствии осадков обычно наблюдается дымка, при ухудшении видимости до 1 км и менее - туман. В сухую погоду видимость может ухудшаться дымом, пылью или мглою.
Явления - указаны атмосферные явления, наблюдавшиеся в срок или в последний час перед сроком; фигурными скобками обозначены явления, наблюдавшиеся между сроками (за 1-3 часа до срока); квадратными скобками обозначены град или гололедные отложения с указанием их диаметра в мм.
Облачность - указаны через наклонную черту общая и нижняя облачность в баллах и высота нижней границы облаков в метрах; квадратными скобками обозначены формы облаков: Ci - перистые, Cs - перисто-слоистые, Cc - перисто-кучевые, Ac - высококучевые, As - высокослоистые, Sc - слоисто-кучевые, Ns - слоисто-дождевые, Cu - кучевые, Cb - кучево-дождевые. Подробнее классификацию облаков см. в Атласе облаков (PDF).
T - Температура воздуха - температура, измеренная на высоте 2 м над землей.
Td - Температура точки росы - температура, при понижении до которой содержащийся в воздухе водяной пар достигнет насыщения.
f - Относительная влажность воздуха - влажноcть воздуха, измеренная на высоте 2 м над землей.
Te - Эффективная температура - температура, которую ощущает одетый по сезону человек в тени. Характеристика душности погоды. При расчете учитывается влияние влажности воздуха и скорости ветра на теплоощущения человека.
Tes - Эффективная температура на солнце - температура, которую ощущает человек, с поправкой на солнечный нагрев. Характеристика знойности погоды. Зависит от высоты солнца над горизонтом, облачности и скорости ветра. Ночью, в пасмурную погоду, а также при ветре 12 м/с и более поправка равна нулю.
P - Атмосферное давление - приведенное к уровню моря атмосферное давление.
Po - Атмосферное давление - измеренное на уровне метеостанции атмосферное давление.
Tmin - Минимальная температура - минимум температуры воздуха на высоте 2 м над землей.
Tmax - Максимальная температура - максимум температуры воздуха на высоте 2 м над землей.
R - Количество осадков - Количество выпавших осадков за период времени, мм. При наведении курсора мыши на число - период времени, за который выпало указанное количество осадков.
R24 - Количество осадков - Количество выпавших осадков за 24 часа, мм.
S - Снежный покров - Высота снежного покрова, см. При наведении курсора мыши на число - состояние снежного покрова и степень покрытия местности в баллах.